This is the latest recevied weather packets stored in our database for station/object W3AJR. If no packets are shown the sender has not sent any weather packets the latest 10 day(s).
| Time | Temp. | Humidity | Pressure | Rain* | Wind** | Luminosity | Snow |
|---|---|---|---|---|---|---|---|
| 1778198720 | 12.78° C | 76% | 1009.9 hPa | 0 mm | - | 2 W/m² | - |
| 1778198418 | 12.78° C | 76% | 1010 hPa | 0 mm | - | 4 W/m² | - |
| 1778198114 | 13.33° C | 75% | 1009.7 hPa | 0 mm | - | 7 W/m² | - |
| 1778197812 | 13.33° C | 75% | 1009.7 hPa | 0 mm | - | 9 W/m² | - |
| 1778197508 | 13.33° C | 75% | 1009.5 hPa | 0 mm | - | 10 W/m² | - |
| 1778197204 | 13.33° C | 74% | 1009.5 hPa | 0 mm | - | 14 W/m² | - |
| 1778196901 | 13.89° C | 73% | 1009.3 hPa | 0 mm | - | 19 W/m² | - |
| 1778196600 | 13.89° C | 73% | 1009.2 hPa | 0 mm | - | 19 W/m² | - |
| 1778196296 | 13.89° C | 72% | 1009.2 hPa | 0 mm | - | 21 W/m² | - |
| 1778195993 | 14.44° C | 71% | 1009.2 hPa | 0 mm | - | 25 W/m² | - |
| 1778195689 | 14.44° C | 71% | 1009.3 hPa | 0 mm | - | 33 W/m² | - |
| 1778195387 | 14.44° C | 70% | 1009.2 hPa | 0 mm | - | 32 W/m² | - |
| 1778195084 | 15° C | 70% | 1009 hPa | 0 mm | - | 42 W/m² | - |
| 1778194779 | 15° C | 69% | 1009.1 hPa | 0 mm | - | 73 W/m² | - |
| 1778194475 | 15° C | 70% | 1008.8 hPa | 0 mm | - | 82 W/m² | - |
| 1778194171 | 15° C | 70% | 1008.9 hPa | 0 mm | - | 85 W/m² | - |
| 1778193867 | 15° C | 69% | 1008.9 hPa | 0 mm | - | 101 W/m² | - |
| 1778193564 | 15° C | 68% | 1008.8 hPa | 0 mm | - | 111 W/m² | - |
| 1778193260 | 15° C | 68% | 1008.6 hPa | 0 mm | - | 131 W/m² | - |
| 1778192957 | 15.56° C | 66% | 1008.7 hPa | 0 mm | - | 162 W/m² | - |
| 1778192654 | 15.56° C | 65% | 1008.8 hPa | 0 mm | - | 173 W/m² | - |
| 1778192351 | 15.56° C | 66% | 1008.5 hPa | 0 mm | - | 206 W/m² | - |
| 1778192047 | 15° C | 67% | 1008.5 hPa | 0 mm | - | 179 W/m² | - |
| 1778191743 | 15.56° C | 65% | 1008.7 hPa | 0 mm | - | 56 W/m² | - |
| 1778191441 | 15.56° C | 66% | 1008.4 hPa | 0 mm | - | 62 W/m² | - |
* Rain latest hour (hover to see other rain measurements)
** Current wind speed in m/s (hover to see current wind gust speed)